Location: Br�ttisellen
(47.4227°N, 8.6287°E)
Time: 13:50:44
(UTC+00:00)

Cosmos 2233 Rocket - Visible Passes

Search period start: 06 August 2020 00:00
Search period end: 16 August 2020 00:00
Orbit: 954 x 990 km, 82.9° (Epoch: 05 August)

Date Brightness Start Highest point End Pass type
(mag) Time Alt. Az. Time Alt. Az. Time Alt. Az.
06 Aug 6.2 01:33:12 10° WNW 01:34:51 11° NW 01:36:30 10° NW visible
06 Aug 4.5 22:26:11 40° ESE 22:27:11 43° E 22:33:06 10° NNE visible
07 Aug 5.0 00:10:46 30° WSW 00:12:36 35° WNW 00:18:22 10° N visible
07 Aug 5.9 21:05:46 11° E 21:07:15 12° ENE 21:09:37 10° NE visible
07 Aug 3.9 22:50:21 61° SSE 22:51:22 73° E 22:57:41 10° NNE visible
08 Aug 5.7 00:34:56 18° W 00:37:21 22° WNW 00:42:09 10° NNW visible
08 Aug 5.4 21:29:55 21° E 21:31:03 22° E 21:35:39 10° NE visible
08 Aug 4.1 23:14:31 57° SW 23:15:43 70° WNW 23:22:03 10° N visible
09 Aug 6.2 00:59:19 10° W 01:02:18 13° WNW 01:05:17 10° NNW visible
09 Aug 4.7 21:54:05 34° ESE 21:55:01 36° E 22:00:41 10° NNE visible
09 Aug 4.8 23:38:40 36° WSW 23:40:13 42° WNW 23:46:13 10° N visible
10 Aug 4.1 22:18:13 54° SE 22:19:08 60° E 22:25:22 10° NNE visible
11 Aug 5.5 00:02:48 22° W 00:04:55 26° WNW 00:10:08 10° N visible
11 Aug 5.6 20:57:46 17° E 20:58:58 18° E 21:02:57 10° NE visible
11 Aug 3.9 22:42:21 64° SSW 22:43:26 83° W 22:49:48 10° N visible
12 Aug 6.1 00:26:55 12° W 00:29:47 16° WNW 00:33:36 10° NNW visible
12 Aug 4.9 21:21:52 28° ESE 21:22:52 30° E 21:28:13 10° NNE visible
12 Aug 4.5 23:06:28 43° WSW 23:07:52 51° WNW 23:14:03 10° N visible
13 Aug 4.3 21:45:59 46° ESE 21:46:56 50° E 21:53:01 10° NNE visible
13 Aug 5.3 23:30:33 26° W 23:32:29 31° WNW 23:38:04 10° N visible
14 Aug 5.7 20:25:29 13° E 20:26:54 14° ENE 20:30:04 10° NE visible
14 Aug 3.9 22:10:04 63° S 22:11:10 82° E 22:17:32 10° N visible
14 Aug 5.9 23:54:38 15° W 23:57:18 19° WNW 00:01:44 10° NNW visible
15 Aug 5.2 20:49:34 23° E 20:50:45 25° E 20:55:42 10° NNE visible
15 Aug 4.3 22:34:08 49° SW 22:35:33 61° WNW 22:41:50 10° N visible
